24hr Temperature Data

Temp.
(°C)
Wind Chill
(°C)
Dew Point
(°C)
Solar Hours
(hh:mm)
Solar Radiation
(w/m2)
Min
12.6 12.4 8.8 00:00 0.0
Max
17.3 17.4 13.7 02:39 176.0
Range
4.7 5 4.9 n/a 176
Mode
15.3 14.7 9.7 00:10 4.0
Median
15.3 14.6 10.8 00:10 4.0
Mean
15 14.6 11.1 n/a 19.6
Std. Dev
1.3 1.3 1.3 n/a 26.3
Temp.
(°C)
Wind Chill
(°C)
Dew Point
(°C)
Solar Hours
(hh:mm)
Solar Radiation
(w/m2)
23/09 21:50 14.7 13.9 12.4 00:10 4.0
23/09 21:49 14.7 13.9 12.4 00:10 4.0
23/09 21:48 14.7 13.9 12.4 00:10 4.0
23/09 21:47 14.7 13.9 12.4 00:10 4.0
23/09 21:46 14.7 13.9 12.4 00:10 4.0
23/09 21:45 14.7 13.9 12.4 00:10 4.0
23/09 21:44 14.7 13.8 12.4 00:10 4.0
23/09 21:43 14.7 13.8 12.4 00:10 0.0
23/09 21:42 14.7 13.8 12.4 00:10 4.0
23/09 21:41 14.7 13.8 12.4 00:10 4.0
23/09 21:40 14.7 13.9 12.4 00:10 4.0
23/09 21:39 14.7 13.9 12.4 00:10 4.0
23/09 21:38 14.7 13.8 12.2 00:10 4.0
23/09 21:37 14.7 13.8 12.2 00:10 4.0
23/09 21:36 14.7 13.8 12.2 00:10 4.0
23/09 21:35 14.7 13.8 12.2 00:10 4.0
23/09 21:34 14.7 13.8 12.2 00:10 4.0
23/09 21:33 14.7 13.8 12.2 00:10 4.0
23/09 21:32 14.7 13.8 12.2 00:10 4.0
23/09 21:31 14.7 13.8 12.2 00:10 4.0
23/09 21:30 14.7 13.8 12.2 00:10 0.0
23/09 21:29 14.7 13.8 12 00:10 4.0
23/09 21:28 14.7 13.8 12 00:10 0.0
23/09 21:27 14.7 13.8 12 00:10 4.0
23/09 21:26 14.7 13.8 12 00:10 4.0
23/09 21:25 14.7 13.9 12 00:10 4.0
23/09 21:24 14.7 13.9 12 00:10 4.0
23/09 21:23 14.8 14 12.1 00:10 4.0
23/09 21:22 14.8 13.9 12.1 00:10 4.0
23/09 21:21 14.8 13.9 12.1 00:10 4.0
23/09 21:20 14.8 13.9 12.1 00:10 4.0
23/09 21:19 14.8 13.9 12.1 00:10 4.0
23/09 21:18 14.8 13.9 11.9 00:10 0.0
23/09 21:17 14.8 13.8 11.9 00:10 4.0
23/09 21:16 14.8 13.8 11.9 00:10 4.0
23/09 21:15 14.8 13.8 11.9 00:10 4.0
23/09 21:14 14.8 13.9 11.9 00:10 4.0
23/09 21:13 14.8 13.8 11.9 00:10 4.0
23/09 21:12 14.8 13.9 11.9 00:10 4.0
23/09 21:11 14.8 13.9 11.7 00:10 4.0
23/09 21:10 14.9 14.1 11.8 00:10 4.0
23/09 21:09 14.9 14.1 11.8 00:10 4.0
23/09 21:08 14.9 14.1 11.8 00:10 4.0
23/09 21:07 14.9 14.2 11.8 00:10 4.0
23/09 21:06 14.9 14.2 11.6 00:10 4.0
23/09 21:05 15.0 14.3 11.7 00:10 4.0
23/09 21:04 15.0 14.3 11.7 00:10 4.0
23/09 21:03 15.0 14.3 11.7 00:10 4.0
23/09 21:02 15.0 14.3 11.7 00:10 4.0
23/09 21:01 15.0 14.2 11.7 00:10 4.0
23/09 21:00 15.0 14.2 11.7 00:10 0.0
23/09 20:59 15.0 14.2 11.7 00:10 4.0
23/09 20:58 15.0 14.2 11.5 00:10 0.0
23/09 20:57 15.0 14.2 11.5 00:10 4.0
23/09 20:56 15.1 14.3 11.6 00:10 4.0
23/09 20:55 15.1 14.2 11.6 00:10 4.0
23/09 20:54 15.1 14.2 11.6 00:10 4.0
23/09 20:53 15.1 14.2 11.5 00:10 4.0
23/09 20:52 15.2 14.4 11.6 00:10 4.0
23/09 20:51 15.2 14.4 11.6 00:10 4.0
23/09 20:50 15.2 14.4 11.4 00:10 4.0
23/09 20:49 15.2 14.4 11.4 00:10 4.0
23/09 20:48 15.3 14.5 11.5 00:10 4.0
23/09 20:47 15.3 14.6 11.5 00:10 4.0
23/09 20:46 15.3 14.6 11.5 00:10 4.0
23/09 20:45 15.3 14.6 11.3 00:10 4.0
23/09 20:44 15.4 14.7 11.4 00:10 4.0
23/09 20:43 15.4 14.7 11.4 00:10 4.0
23/09 20:42 15.4 14.7 11.4 00:10 4.0
23/09 20:41 15.4 14.8 11.4 00:10 4.0
23/09 20:40 15.4 14.8 11.4 00:10 4.0
23/09 20:39 15.4 14.8 11.2 00:10 4.0
23/09 20:38 15.4 14.8 11.2 00:10 0.0
23/09 20:37 15.5 14.9 11.3 00:10 4.0
23/09 20:36 15.5 14.8 11.3 00:10 4.0
23/09 20:35 15.5 14.8 11.3 00:10 4.0
23/09 20:34 15.5 14.8 11.3 00:10 4.0
23/09 20:33 15.5 14.8 11.3 00:10 4.0
23/09 20:32 15.5 14.8 11.3 00:10 4.0
23/09 20:31 15.5 14.9 11.1 00:10 4.0
23/09 20:30 15.5 14.9 11.1 00:10 4.0
23/09 20:29 15.5 14.9 11.1 00:10 4.0
23/09 20:28 15.5 14.9 11.1 00:10 0.0
23/09 20:27 15.5 14.9 11.1 00:10 4.0
23/09 20:26 15.5 14.9 11.1 00:10 4.0
23/09 20:25 15.5 14.9 11.1 00:10 4.0
23/09 20:24 15.5 14.9 11.3 00:10 4.0
23/09 20:23 15.5 15 11.3 00:10 4.0
23/09 20:22 15.5 14.9 11.3 00:10 4.0
23/09 20:21 15.5 14.9 11.3 00:10 4.0
23/09 20:20 15.4 14.8 11.2 00:10 4.0
23/09 20:19 15.4 14.8 11.2 00:10 4.0
23/09 20:18 15.4 14.8 11.2 00:10 4.0
23/09 20:17 15.4 14.8 11.2 00:10 4.0
23/09 20:16 15.4 14.8 11.2 00:10 4.0
23/09 20:15 15.4 14.8 11.2 00:10 0.0
23/09 20:14 15.4 14.7 11.2 00:10 4.0
23/09 20:13 15.4 14.7 11.2 00:10 4.0
23/09 20:12 15.4 14.7 11.2 00:10 4.0
23/09 20:11 15.4 14.7 11.2 00:10 4.0
23/09 20:10 15.4 14.7 11.2 00:10 4.0
23/09 20:09 15.5 14.7 11.3 00:10 4.0
23/09 20:08 15.5 14.7 11.1 00:10 4.0
23/09 20:07 15.5 14.7 11.1 00:10 4.0
23/09 20:06 15.5 14.7 11.1 00:10 4.0
23/09 20:05 15.5 14.7 11.1 00:10 4.0
23/09 20:04 15.5 14.7 11.1 00:10 4.0
23/09 20:03 15.5 14.7 11.1 00:10 4.0
23/09 20:02 15.5 14.7 11.1 00:10 4.0
23/09 20:01 15.5 14.7 11.1 00:10 4.0
23/09 20:00 15.5 14.7 11.1 00:10 4.0
23/09 19:59 15.5 14.7 11.1 00:10 4.0
23/09 19:58 15.5 14.7 11.1 00:10 4.0
23/09 19:57 15.5 14.8 11.1 00:10 4.0
23/09 19:56 15.5 14.8 11.1 00:10 4.0
23/09 19:55 15.4 14.7 11 00:10 0.0
23/09 19:54 15.4 14.7 11 00:10 4.0
23/09 19:53 15.4 14.7 11 00:10 4.0
23/09 19:52 15.4 14.7 11 00:10 4.0
23/09 19:51 15.4 14.7 11 00:10 4.0
23/09 19:50 15.4 14.7 11 00:10 4.0
23/09 19:49 15.4 14.7 11 00:10 4.0
23/09 19:48 15.4 14.7 11 00:10 4.0
23/09 19:47 15.4 14.8 11 00:10 4.0
23/09 19:46 15.4 14.7 11 00:10 4.0
23/09 19:45 15.4 14.8 11 00:10 0.0
23/09 19:44 15.4 14.8 11 00:10 4.0
23/09 19:43 15.4 14.8 11 00:10 4.0
23/09 19:42 15.4 14.8 11 00:10 4.0
23/09 19:41 15.4 14.8 11 00:10 4.0
23/09 19:40 15.4 14.8 11 00:10 4.0
23/09 19:39 15.3 14.7 10.9 00:10 4.0
23/09 19:38 15.3 14.6 10.9 00:10 4.0
23/09 19:37 15.3 14.6 10.9 00:10 4.0
23/09 19:36 15.3 14.5 10.9 00:10 4.0
23/09 19:35 15.3 14.5 10.9 00:10 4.0
23/09 19:34 15.3 14.5 10.9 00:10 4.0
23/09 19:33 15.3 14.4 10.9 00:10 4.0
23/09 19:32 15.3 14.4 10.9 00:10 0.0
23/09 19:31 15.3 14.4 10.9 00:10 0.0
23/09 19:30 15.3 14.4 10.9 00:10 0.0
23/09 19:29 15.3 14.4 10.9 00:10 4.0
23/09 19:28 15.3 14.4 10.9 00:10 4.0
23/09 19:27 15.3 14.4 10.9 00:10 4.0
23/09 19:26 15.3 14.5 10.9 00:10 4.0
23/09 19:25 15.3 14.5 10.9 00:10 4.0
23/09 19:24 15.3 14.5 10.9 00:10 4.0
23/09 19:23 15.3 14.6 10.9 00:10 4.0
23/09 19:22 15.2 14.5 10.8 00:10 4.0
23/09 19:21 15.2 14.5 11 00:10 4.0
23/09 19:20 15.2 14.5 11 00:10 4.0
23/09 19:19 15.2 14.5 11 00:10 4.0
23/09 19:18 15.2 14.5 11 00:10 4.0
23/09 19:17 15.2 14.5 11 00:10 4.0
23/09 19:16 15.1 14.3 10.9 00:10 4.0
23/09 19:15 15.2 14.5 11 00:10 4.0
23/09 19:14 15.1 14.3 10.9 00:10 4.0
23/09 19:13 15.1 14.3 10.9 00:10 0.0
23/09 19:12 15.1 14.3 11.1 00:10 4.0
23/09 19:11 15.1 14.3 11.1 00:10 4.0
23/09 19:10 15.1 14.3 11.1 00:10 4.0
23/09 19:09 15.1 14.3 11.1 00:10 4.0
23/09 19:08 15.1 14.3 11.1 00:10 4.0
23/09 19:07 15.0 14.2 11 00:10 4.0
23/09 19:06 15.0 14.2 11 00:10 4.0
23/09 19:05 15.0 14.1 11 00:10 4.0
23/09 19:04 15.0 14.1 11 00:10 4.0
23/09 19:03 15.0 14.1 11 00:10 4.0
23/09 19:02 15.0 14.1 11.2 00:10 4.0
23/09 19:01 14.9 13.9 11.1 00:10 0.0
23/09 19:00 14.9 13.9 11.1 00:10 4.0
23/09 18:59 14.9 13.8 11.1 00:10 4.0
23/09 18:58 14.9 13.8 11.1 00:10 0.0
23/09 18:57 14.9 13.8 11.1 00:10 4.0
23/09 18:56 14.9 13.8 11.1 00:10 4.0
23/09 18:55 14.9 13.7 11.1 00:10 4.0
23/09 18:54 14.9 13.7 11.3 00:10 4.0
23/09 18:53 14.8 13.6 11.2 00:10 4.0
23/09 18:52 14.8 13.7 11.2 00:10 4.0
23/09 18:51 14.8 13.6 11.2 00:10 4.0
23/09 18:50 14.8 13.6 11.2 00:10 4.0
23/09 18:49 14.8 13.7 11.2 00:10 0.0
23/09 18:48 14.8 13.6 11.2 00:10 4.0
23/09 18:47 14.8 13.6 11.2 00:10 4.0
23/09 18:46 14.8 13.7 11.2 00:10 4.0
23/09 18:45 14.8 13.6 11.2 00:10 4.0
23/09 18:44 14.8 13.6 11.2 00:10 4.0
23/09 18:43 14.8 13.7 11.2 00:10 4.0
23/09 18:42 14.8 13.7 11.2 00:10 4.0
23/09 18:41 14.8 13.7 11 00:10 4.0
23/09 18:40 14.8 13.7 11 00:10 0.0
23/09 18:39 14.9 13.9 11.1 00:10 4.0
23/09 18:38 14.9 13.9 11.1 00:10 4.0
23/09 18:37 14.9 13.9 11.1 00:10 4.0
23/09 18:36 14.9 13.9 10.9 00:10 4.0
23/09 18:35 14.9 14 10.9 00:10 4.0
23/09 18:34 14.9 14 10.9 00:10 4.0
23/09 18:33 14.9 14 10.9 00:10 4.0
23/09 18:32 14.9 14.1 10.9 00:10 0.0
23/09 18:31 14.9 14.1 10.7 00:10 0.0
23/09 18:30 15.0 14.2 10.8 00:10 0.0
23/09 18:29 15.0 14.2 10.8 00:10 0.0
23/09 18:28 15.0 14.1 10.8 00:10 0.0
23/09 18:27 15.0 14.2 10.6 00:10 0.0
23/09 18:26 15.1 14.3 10.7 00:10 0.0
23/09 18:25 15.1 14.3 10.7 00:10 4.0
23/09 18:24 15.1 14.2 10.7 00:10 4.0
23/09 18:23 15.1 14.2 10.5 00:10 4.0
23/09 18:22 15.2 14.4 10.6 00:10 4.0
23/09 18:21 15.2 14.4 10.6 00:10 4.0
23/09 18:20 15.2 14.4 10.4 00:10 4.0
23/09 18:19 15.2 14.4 10.4 00:10 4.0
23/09 18:18 15.2 14.4 10.4 00:10 4.0
23/09 18:17 15.2 14.5 10.4 00:10 4.0
23/09 18:16 15.3 14.7 10.4 00:10 0.0
23/09 18:15 15.3 14.7 10.2 00:10 4.0
23/09 18:14 15.3 14.8 10.2 00:10 4.0
23/09 18:13 15.3 14.8 10.2 00:10 4.0
23/09 18:12 15.3 14.9 10.2 00:10 4.0
23/09 18:11 15.3 14.9 10.2 00:10 4.0
23/09 18:10 15.3 14.9 10.2 00:10 4.0
23/09 18:09 15.3 14.9 10.2 00:10 4.0
23/09 18:08 15.3 14.9 10.2 00:10 0.0
23/09 18:07 15.3 14.9 10.2 00:10 0.0
23/09 18:06 15.3 14.9 10.2 00:10 0.0
23/09 18:05 15.3 14.9 10.2 00:10 0.0
23/09 18:04 15.3 14.9 10.2 00:10 0.0
23/09 18:03 15.3 14.9 10.2 00:10 4.0
23/09 18:02 15.3 14.8 10 00:10 0.0
23/09 18:01 15.3 14.7 10 00:10 0.0
23/09 18:00 15.3 14.7 10 00:10 0.0
23/09 17:59 15.3 14.8 10 00:10 0.0
23/09 17:58 15.2 14.7 10.1 00:10 0.0
23/09 17:57 15.2 14.7 10.1 00:10 0.0
23/09 17:56 15.2 14.7 10.1 00:10 0.0
23/09 17:55 15.2 14.6 10.1 00:10 4.0
23/09 17:54 15.2 14.6 10.1 00:10 4.0
23/09 17:53 15.2 14.5 10.1 00:10 4.0
23/09 17:52 15.2 14.5 10.1 00:10 4.0
23/09 17:51 15.2 14.5 10.1 00:10 4.0
23/09 17:50 15.2 14.5 10.1 00:10 4.0
23/09 17:49 15.2 14.4 10.1 00:10 4.0
23/09 17:48 15.2 14.4 10.1 00:10 6.0
23/09 17:47 15.2 14.3 10.1 00:10 6.0
23/09 17:46 15.2 14.2 10.1 00:10 6.0
23/09 17:45 15.2 14.2 10.1 00:10 6.0
23/09 17:44 15.2 14.2 10.1 00:10 6.0
23/09 17:43 15.2 14.1 10.1 00:10 6.0
23/09 17:42 15.2 14.1 10.1 00:10 8.0
23/09 17:41 15.2 14.1 10.1 00:10 8.0
23/09 17:40 15.2 14.1 10.1 00:10 8.0
23/09 17:39 15.2 14.1 10.1 00:10 8.0
23/09 17:38 15.2 14.1 10.1 00:10 8.0
23/09 17:37 15.2 14.1 10.1 00:10 8.0
23/09 17:36 15.2 14.1 10.1 00:10 8.0
23/09 17:35 15.2 14.1 10.1 00:10 10.0
23/09 17:34 15.2 14.1 10.1 00:10 10.0
23/09 17:33 15.2 14.1 10.1 00:10 10.0
23/09 17:32 15.2 14.1 10.1 00:10 10.0
23/09 17:31 15.2 14.2 10.1 00:10 10.0
23/09 17:30 15.2 14.2 10.1 00:10 10.0
23/09 17:29 15.2 14.2 10.1 00:10 10.0
23/09 17:28 15.2 14.2 10.1 00:10 10.0
23/09 17:27 15.2 14.2 10.1 00:10 10.0
23/09 17:26 15.2 14.2 10.1 00:10 10.0
23/09 17:25 15.2 14.3 10.1 00:10 10.0
23/09 17:24 15.2 14.3 10.1 00:10 10.0
23/09 17:23 15.2 14.3 10.1 00:10 10.0
23/09 17:22 15.2 14.3 10.1 00:10 10.0
23/09 17:21 15.2 14.4 10.1 00:10 10.0
23/09 17:20 15.2 14.4 10.1 00:10 10.0
23/09 17:19 15.2 14.4 10.1 00:10 10.0
23/09 17:18 15.3 14.5 10 00:10 10.0
23/09 17:17 15.3 14.6 10.2 00:10 10.0
23/09 17:16 15.3 14.6 10.2 00:10 10.0
23/09 17:15 15.3 14.6 10.2 00:10 10.0
23/09 17:14 15.3 14.6 10.2 00:10 10.0
23/09 17:13 15.3 14.6 10.2 00:10 10.0
23/09 17:12 15.3 14.6 10.2 00:10 10.0
23/09 17:11 15.3 14.7 10.2 00:10 10.0
23/09 17:10 15.3 14.7 10.2 00:10 10.0
23/09 17:09 15.3 14.7 10.2 00:10 10.0
23/09 17:08 15.3 14.7 10.2 00:10 10.0
23/09 17:07 15.3 14.7 10.2 00:10 10.0
23/09 17:06 15.3 14.7 10.2 00:10 10.0
23/09 17:05 15.3 14.7 10.2 00:10 8.0
23/09 17:04 15.3 14.7 10.2 00:10 10.0
23/09 17:03 15.3 14.8 10.2 00:10 10.0
23/09 17:02 15.3 14.8 10.2 00:10 10.0
23/09 17:01 15.3 14.8 10 00:10 10.0
23/09 17:00 15.3 14.8 10 00:10 12.0
23/09 16:59 15.3 14.7 10 00:10 12.0
23/09 16:58 15.3 14.7 10 00:10 12.0
23/09 16:57 15.3 14.8 10 00:10 12.0
23/09 16:56 15.3 14.8 10 00:10 12.0
23/09 16:55 15.3 14.7 10 00:10 12.0
23/09 16:54 15.3 14.7 10 00:10 12.0
23/09 16:50 15.3 14.7 9.8 00:10 12.0
23/09 16:49 15.3 14.7 9.8 00:10 12.0
23/09 16:48 15.3 14.8 9.8 00:10 12.0
23/09 16:47 15.3 14.8 9.8 00:10 12.0
23/09 16:46 15.4 14.9 9.9 00:10 12.0
23/09 16:45 15.4 14.8 9.9 00:10 12.0
23/09 16:44 15.4 14.8 9.9 00:10 12.0
23/09 16:43 15.4 14.8 9.9 00:10 10.0
23/09 16:42 15.4 14.8 9.9 00:10 10.0
23/09 16:41 15.4 14.7 9.9 00:10 10.0
23/09 16:40 15.4 14.7 9.9 00:10 10.0
23/09 16:39 15.4 14.7 9.9 00:10 10.0
23/09 16:38 15.4 14.7 9.9 00:10 10.0
23/09 16:37 15.4 14.7 9.9 00:10 10.0
23/09 16:36 15.4 14.8 9.7 00:10 10.0
23/09 16:35 15.4 14.8 9.7 00:10 10.0
23/09 16:34 15.4 14.8 9.7 00:10 10.0
23/09 16:33 15.4 14.8 9.7 00:10 10.0
23/09 16:32 15.4 14.9 9.7 00:10 12.0
23/09 16:31 15.4 14.9 9.7 00:10 12.0
23/09 16:30 15.4 14.9 9.7 00:10 12.0
23/09 16:29 15.4 14.9 9.7 00:10 12.0
23/09 16:28 15.4 14.9 9.7 00:10 12.0
23/09 16:27 15.4 15 9.7 00:10 12.0
23/09 16:26 15.4 14.9 9.7 00:10 14.0
23/09 16:25 15.4 14.9 9.7 00:10 14.0
23/09 16:24 15.4 14.8 9.7 00:10 14.0
23/09 16:23 15.4 14.9 9.5 00:10 14.0
23/09 16:22 15.4 14.9 9.5 00:10 14.0
23/09 16:21 15.4 14.9 9.5 00:10 14.0
23/09 16:20 15.4 14.8 9.5 00:10 14.0
23/09 16:19 15.4 14.8 9.5 00:10 14.0
23/09 16:18 15.4 14.7 9.5 00:10 16.0
23/09 16:17 15.4 14.6 9.7 00:10 16.0
23/09 16:16 15.4 14.5 9.7 00:10 16.0
23/09 16:15 15.4 14.5 9.7 00:10 16.0
23/09 16:14 15.3 14.4 9.6 00:10 18.0
23/09 16:13 15.3 14.4 9.6 00:10 18.0
23/09 16:12 15.3 14.4 9.8 00:10 18.0
23/09 16:11 15.3 14.3 9.8 00:10 18.0
23/09 16:10 15.3 14.3 9.8 00:10 18.0
23/09 16:09 15.3 14.3 9.8 00:10 18.0
23/09 16:08 15.4 14.5 9.9 00:10 18.0
23/09 16:07 15.3 14.4 9.8 00:10 18.0
23/09 16:06 15.3 14.4 9.8 00:10 18.0
23/09 16:05 15.3 14.4 9.8 00:10 18.0
23/09 16:04 15.3 14.5 9.8 00:10 18.0
23/09 16:03 15.3 14.4 9.8 00:10 18.0
23/09 16:02 15.3 14.4 9.8 00:10 16.0
23/09 16:01 15.3 14.5 10 00:10 16.0
23/09 16:00 15.3 14.4 10 00:10 16.0
23/09 15:59 15.3 14.4 10 00:10 16.0
23/09 15:58 15.3 14.4 10 00:10 16.0
23/09 15:57 15.3 14.4 10 00:10 18.0
23/09 15:56 15.3 14.4 10 00:10 18.0
23/09 15:55 15.3 14.4 10 00:10 18.0
23/09 15:54 15.3 14.4 10 00:10 18.0
23/09 15:53 15.3 14.5 10.2 00:10 18.0
23/09 15:52 15.3 14.4 10.2 00:10 18.0
23/09 15:51 15.4 14.6 10.3 00:10 18.0
23/09 15:50 15.4 14.6 10.3 00:10 16.0
23/09 15:49 15.4 14.6 10.3 00:10 16.0
23/09 15:48 15.4 14.6 10.3 00:10 16.0
23/09 15:47 15.4 14.6 10.3 00:10 16.0
23/09 15:46 15.4 14.6 10.3 00:10 18.0
23/09 15:45 15.4 14.7 10.3 00:10 16.0
23/09 15:44 15.4 14.6 10.3 00:10 16.0
23/09 15:43 15.4 14.7 10.3 00:10 16.0
23/09 15:42 15.4 14.7 10.3 00:10 16.0
23/09 15:41 15.4 14.7 10.3 00:10 16.0
23/09 15:40 15.4 14.8 10.5 00:10 16.0
23/09 15:39 15.4 14.8 10.5 00:10 16.0
23/09 15:38 15.4 14.8 10.5 00:10 18.0
23/09 15:37 15.4 14.8 10.5 00:10 18.0
23/09 15:36 15.4 14.7 10.5 00:10 18.0
23/09 15:35 15.4 14.7 10.5 00:10 18.0
23/09 15:34 15.4 14.7 10.5 00:10 18.0
23/09 15:33 15.4 14.7 10.5 00:10 18.0
23/09 15:32 15.4 14.6 10.5 00:10 18.0
23/09 15:31 15.4 14.6 10.5 00:10 18.0
23/09 15:30 15.5 14.7 10.6 00:10 20.0
23/09 15:29 15.5 14.7 10.6 00:10 20.0
23/09 15:28 15.5 14.7 10.4 00:10 20.0
23/09 15:27 15.5 14.7 10.6 00:10 22.0
23/09 15:26 15.4 14.5 10.3 00:10 24.0
23/09 15:25 15.4 14.6 10.3 00:10 24.0
23/09 15:24 15.5 14.7 10.6 00:10 24.0
23/09 15:23 15.5 14.7 10.6 00:10 22.0
23/09 15:22 15.5 14.7 10.4 00:10 22.0
23/09 15:21 15.5 14.7 10.4 00:10 22.0
23/09 15:20 15.5 14.6 10.4 00:10 20.0
23/09 15:19 15.5 14.7 10.6 00:10 20.0
23/09 15:18 15.5 14.6 10.4 00:10 20.0
23/09 15:17 15.5 14.6 10.4 00:10 20.0
23/09 15:16 15.5 14.6 10.4 00:10 20.0
23/09 15:15 15.5 14.6 10.4 00:10 22.0
23/09 15:14 15.6 14.7 10.5 00:10 22.0
23/09 15:13 15.6 14.7 10.5 00:10 22.0
23/09 15:12 15.7 14.8 10.4 00:10 24.0
23/09 15:11 15.7 14.9 10.2 00:10 24.0
23/09 15:10 15.7 14.9 10.2 00:10 24.0
23/09 15:09 15.7 14.9 10.2 00:10 24.0
23/09 15:08 15.7 14.9 10.2 00:10 24.0
23/09 15:07 15.7 14.9 10.2 00:10 26.0
23/09 15:06 15.7 14.9 10.2 00:10 26.0
23/09 15:05 15.7 14.9 10.2 00:10 28.0
23/09 15:04 15.6 14.8 10.1 00:10 28.0
23/09 15:03 15.6 14.8 10.1 00:10 28.0
23/09 15:02 15.6 14.8 10.3 00:10 28.0
23/09 15:01 15.6 14.8 10.3 00:10 28.0
23/09 15:00 15.6 14.8 10.5 00:10 26.0
23/09 14:59 15.6 14.8 10.5 00:10 26.0
23/09 14:58 15.6 14.8 10.5 00:10 26.0
23/09 14:57 15.6 14.9 10.5 00:10 28.0
23/09 14:56 15.6 14.9 10.5 00:10 28.0
23/09 14:55 15.6 14.9 10.5 00:10 28.0
23/09 14:54 15.6 14.9 10.5 00:10 28.0
23/09 14:53 15.6 14.9 10.5 00:10 28.0
23/09 14:52 15.7 15.1 10.6 00:10 28.0
23/09 14:51 15.7 15.1 10.6 00:10 28.0
23/09 14:50 15.6 15 10.3 00:10 28.0
23/09 14:49 15.6 15 10.3 00:10 26.0
23/09 14:48 15.6 15 10.5 00:10 24.0
23/09 14:47 15.6 15 10.5 00:10 24.0
23/09 14:46 15.6 15 10.7 00:10 24.0
23/09 14:45 15.6 15 10.7 00:10 24.0
23/09 14:44 15.6 15 10.7 00:10 24.0
23/09 14:43 15.6 15 10.7 00:10 26.0
23/09 14:42 15.6 14.9 10.7 00:10 26.0
23/09 14:41 15.6 14.8 10.7 00:10 26.0
23/09 14:40 15.6 14.8 10.7 00:10 26.0
23/09 14:39 15.6 14.7 10.5 00:10 28.0
23/09 14:38 15.6 14.8 10.5 00:10 26.0
23/09 14:37 15.6 14.8 10.7 00:10 24.0
23/09 14:36 15.6 14.8 10.7 00:10 24.0
23/09 14:35 15.6 14.8 10.7 00:10 24.0
23/09 14:34 15.7 14.9 10.8 00:10 24.0
23/09 14:33 15.7 14.9 10.8 00:10 24.0
23/09 14:32 15.7 14.9 10.6 00:10 24.0
23/09 14:31 15.7 14.9 10.6 00:10 24.0
23/09 14:30 15.7 14.9 10.6 00:10 24.0
23/09 14:29 15.7 14.9 10.6 00:10 26.0
23/09 14:28 15.7 14.8 10.4 00:10 26.0
23/09 14:27 15.7 14.8 10.6 00:10 26.0
23/09 14:26 15.7 14.8 10.6 00:10 26.0
23/09 14:25 15.7 14.7 10.4 00:10 28.0
23/09 14:24 15.7 14.7 10.4 00:10 28.0
23/09 14:23 15.7 14.7 10.4 00:10 28.0
23/09 14:22 15.7 14.7 10.4 00:10 28.0
23/09 14:21 15.7 14.7 10.4 00:10 26.0
23/09 14:20 15.7 14.7 10.4 00:10 24.0
23/09 14:19 15.7 14.7 10.4 00:10 24.0
23/09 14:18 15.7 14.7 10.4 00:10 22.0
23/09 14:17 15.7 14.7 10.4 00:10 24.0
23/09 14:16 15.7 14.8 10.4 00:10 22.0
23/09 14:15 15.7 14.8 10.4 00:10 22.0
23/09 14:14 15.7 14.8 10.4 00:10 22.0
23/09 14:13 15.7 14.9 10.4 00:10 22.0
23/09 14:12 15.7 14.9 10.4 00:10 22.0
23/09 14:11 15.8 15 10.5 00:10 22.0
23/09 14:10 15.8 15 10.5 00:10 22.0
23/09 14:09 15.8 15 10.5 00:10 24.0
23/09 14:08 15.8 14.9 10.5 00:10 24.0
23/09 14:07 15.7 14.7 10.4 00:10 26.0
23/09 14:06 15.7 14.7 10.6 00:10 26.0
23/09 14:05 15.7 14.7 10.6 00:10 26.0
23/09 14:04 15.7 14.7 10.6 00:10 28.0
23/09 14:03 15.7 14.7 10.8 00:10 26.0
23/09 14:02 15.8 14.8 10.7 00:10 26.0
23/09 14:01 15.8 14.7 10.7 00:10 24.0
23/09 14:00 15.8 14.7 10.5 00:10 24.0
23/09 13:59 15.9 14.8 10.4 00:10 26.0
23/09 13:58 15.9 14.8 10.4 00:10 24.0
23/09 13:57 15.9 14.9 10.2 00:10 24.0
23/09 13:56 15.8 14.8 10.1 00:10 24.0
23/09 13:55 15.8 14.9 10.3 00:10 24.0
23/09 13:54 15.8 14.9 10.3 00:10 26.0
23/09 13:53 15.8 15 10.3 00:10 24.0
23/09 13:52 15.8 15 10.3 00:10 24.0
23/09 13:51 15.9 15.2 10.4 00:10 26.0
23/09 13:50 15.9 15.2 10.6 00:10 26.0
23/09 13:49 15.9 15.2 10.4 00:10 26.0
23/09 13:48 15.9 15.2 10.4 00:10 26.0
23/09 13:47 15.9 15.3 10.4 00:10 26.0
23/09 13:46 15.9 15.3 10.4 00:10 28.0
23/09 13:45 15.9 15.2 10.4 00:10 28.0
23/09 13:44 16.0 15.4 10.5 00:10 28.0
23/09 13:43 16.0 15.3 10.5 00:10 30.0
23/09 13:42 16.0 15.3 10.5 00:10 32.0
23/09 13:41 16.0 15.2 10.5 00:10 32.0
23/09 13:40 16.0 15.1 10.5 00:10 32.0
23/09 13:39 16.0 15.1 10.5 00:10 32.0
23/09 13:38 16.0 15.1 10.5 00:10 32.0
23/09 13:37 16.0 15.1 10.5 00:10 32.0
23/09 13:36 16.0 15.1 10.5 00:10 32.0
23/09 13:35 16.0 15.1 10.3 00:10 32.0
23/09 13:34 16.0 15.1 10.3 00:10 32.0
23/09 13:33 16.0 15.1 10.5 00:10 32.0
23/09 13:32 16.0 15.1 10.5 00:10 32.0
23/09 13:31 16.0 15.1 10.5 00:10 32.0
23/09 13:30 16.0 15.1 10.5 00:10 30.0
23/09 13:29 16.0 15.2 10.5 00:10 32.0
23/09 13:28 16.0 15.3 10.5 00:10 32.0
23/09 13:27 16.0 15.3 10.7 00:10 32.0
23/09 13:26 15.9 15.2 10.6 00:10 32.0
23/09 13:25 15.9 15.2 10.8 00:10 34.0
23/09 13:24 15.9 15.2 10.8 00:10 34.0
23/09 13:23 16.0 15.3 10.9 00:10 34.0
23/09 13:22 16.0 15.4 10.9 00:10 36.0
23/09 13:21 16.0 15.4 10.9 00:10 36.0
23/09 13:20 16.0 15.4 10.9 00:10 34.0
23/09 13:19 16.0 15.4 10.7 00:10 36.0
23/09 13:18 16.0 15.4 10.7 00:10 36.0
23/09 13:17 16.0 15.4 10.7 00:10 36.0
23/09 13:16 16.0 15.3 10.7 00:10 36.0
23/09 13:15 16.0 15.4 10.7 00:10 36.0
23/09 13:14 16.0 15.4 10.9 00:10 36.0
23/09 13:13 16.0 15.3 10.7 00:10 36.0
23/09 13:12 16.0 15.4 10.7 00:10 38.0
23/09 13:11 16.1 15.5 11 00:10 38.0
23/09 13:10 16.1 15.4 10.8 00:10 38.0
23/09 13:09 16.1 15.4 10.8 00:10 38.0
23/09 13:08 16.1 15.4 10.8 00:10 38.0
23/09 13:07 16.1 15.4 10.8 00:10 40.0
23/09 13:06 16.1 15.4 10.8 00:10 40.0
23/09 13:05 16.1 15.4 10.8 00:10 42.0
23/09 13:04 16.1 15.3 10.8 00:10 44.0
23/09 13:03 16.1 15.3 10.6 00:10 44.0
23/09 13:02 16.2 15.5 10.7 00:10 44.0
23/09 13:01 16.2 15.5 10.7 00:10 46.0
23/09 13:00 16.2 15.5 10.7 00:10 46.0
23/09 12:59 16.2 15.5 10.7 00:10 46.0
23/09 12:58 16.2 15.5 10.7 00:10 46.0
23/09 12:57 16.2 15.5 10.5 00:10 46.0
23/09 12:56 16.3 15.7 10.6 00:10 44.0
23/09 12:55 16.3 15.7 10.6 00:10 44.0
23/09 12:54 16.3 15.7 10.6 00:10 44.0
23/09 12:53 16.3 15.7 10.6 00:10 44.0
23/09 12:52 16.3 15.8 10.6 00:10 44.0
23/09 12:51 16.3 15.8 10.6 00:10 44.0
23/09 12:50 16.3 15.8 10.8 00:10 46.0
23/09 12:49 16.3 15.8 10.8 00:10 46.0
23/09 12:48 16.4 16 10.9 00:10 46.0
23/09 12:47 16.4 15.9 10.7 00:10 48.0
23/09 12:46 16.4 16 10.7 00:10 48.0
23/09 12:45 16.4 16 10.9 00:10 48.0
23/09 12:44 16.5 16.1 11 00:10 50.0
23/09 12:43 16.5 16.1 11 00:10 50.0
23/09 12:42 16.5 16 11 00:10 50.0
23/09 12:41 16.6 16.2 11.3 00:10 50.0
23/09 12:40 16.7 16.3 11.2 00:10 52.0
23/09 12:39 16.7 16.3 10.9 00:10 52.0
23/09 12:38 16.7 16.3 10.7 00:10 52.0
23/09 12:37 16.7 16.2 10.7 00:10 54.0
23/09 12:36 16.8 16.3 10.8 00:10 54.0
23/09 12:35 16.8 16.3 10.8 00:10 56.0
23/09 12:34 16.8 16.4 10.6 00:10 56.0
23/09 12:33 16.8 16.4 10.6 00:10 56.0
23/09 12:32 16.8 16.4 10.8 00:10 58.0
23/09 12:31 16.8 16.4 10.8 00:10 58.0
23/09 12:30 16.8 16.4 11 00:10 58.0
23/09 12:29 16.7 16.3 10.9 00:10 58.0
23/09 12:28 16.7 16.3 10.9 00:10 60.0
23/09 12:27 16.7 16.3 11.2 00:10 60.0
23/09 12:26 16.7 16.3 11.2 00:10 60.0
23/09 12:25 16.7 16.3 11.4 00:10 60.0
23/09 12:24 16.7 16.4 11.4 00:10 62.0
23/09 12:23 16.7 16.4 11.4 00:10 62.0
23/09 12:22 16.8 16.5 11.5 00:10 64.0
23/09 12:21 16.8 16.5 11.5 00:10 64.0
23/09 12:20 16.8 16.5 11.5 00:10 66.0
23/09 12:19 16.8 16.4 11.5 00:10 68.0
23/09 12:18 16.8 16.4 11.5 00:10 70.0
23/09 12:17 16.9 16.6 11.6 00:10 72.0
23/09 12:16 16.9 16.6 11.6 00:10 76.0
23/09 12:15 17.0 16.8 11.7 00:10 76.0
23/09 12:14 17.0 16.7 11.7 00:10 78.0
23/09 12:13 17.1 16.8 11.8 00:10 80.0
23/09 12:12 17.1 16.8 11.5 00:10 78.0
23/09 12:11 17.1 16.8 11.5 00:10 78.0
23/09 12:10 17.0 16.6 11.4 00:10 78.0
23/09 12:09 17.0 16.7 11.4 00:10 80.0
23/09 12:08 17.0 16.7 11.4 00:10 80.0
23/09 12:07 17.1 16.8 11.8 00:10 76.0
23/09 12:06 17.1 16.8 12 00:10 80.0
23/09 12:05 17.1 16.8 12 00:10 80.0
23/09 12:04 17.1 16.8 12 00:10 80.0
23/09 12:03 17.2 16.9 11.9 00:10 80.0
23/09 12:02 17.2 16.9 11.9 00:10 80.0
23/09 12:01 17.2 16.9 11.9 00:10 80.0
23/09 12:00 17.1 16.8 11.8 00:10 84.0
23/09 11:59 17.1 16.8 12 00:10 86.0
23/09 11:58 17.1 16.9 12 00:10 90.0
23/09 11:57 17.1 16.8 12.2 00:10 92.0
23/09 11:56 17.1 16.9 12 00:10 92.0
23/09 11:55 17.1 16.9 12.2 00:10 94.0
23/09 11:54 17.1 17 12.2 00:10 84.0
23/09 11:53 17.0 16.9 11.9 00:10 98.0
23/09 11:52 17.0 16.8 12.3 00:10 106.0
23/09 11:51 17.1 16.9 12.2 00:10 110.0
23/09 11:50 17.2 17 12.3 00:10 110.0
23/09 11:49 17.2 17 12.3 00:10 108.0
23/09 11:48 17.2 17 12.3 00:10 110.0
23/09 11:47 17.2 17 12.1 00:10 110.0
23/09 11:46 17.2 17 12.1 00:10 110.0
23/09 11:45 17.1 16.9 12 00:10 108.0
23/09 11:44 17.1 16.8 12.2 00:10 106.0
23/09 11:43 17.1 16.9 12.2 00:10 102.0
23/09 11:42 17.1 16.9 12 00:10 102.0
23/09 11:41 17.1 16.9 12 00:10 102.0
23/09 11:40 17.1 17 12.2 00:10 98.0
23/09 11:39 17.1 17 12.2 00:10 98.0
23/09 11:38 17.2 17.2 12.3 00:10 96.0
23/09 11:37 17.1 17.2 12.4 00:10 100.0
23/09 11:36 17.1 17.2 12.4 00:10 102.0
23/09 11:35 17.1 17.2 12.2 00:10 106.0
23/09 11:34 17.1 17.3 12.4 00:10 110.0
23/09 11:33 17.0 17.2 12.5 00:10 112.0
23/09 11:32 17.0 17.1 12.7 00:10 116.0
23/09 11:31 16.9 17 12.8 00:10 120.0
23/09 11:30 16.8 16.9 12.7 00:10 120.0
23/09 11:29 16.7 16.7 12.8 00:09 116.0
23/09 11:28 16.7 16.7 12.8 00:08 98.0
23/09 11:27 16.6 16.7 12.9 00:08 104.0
23/09 11:26 16.6 16.7 12.9 00:08 108.0
23/09 11:25 16.5 16.5 12.8 00:08 108.0
23/09 11:24 16.5 16.5 13 00:08 110.0
23/09 11:23 16.4 16.4 12.9 00:08 96.0
23/09 11:22 16.4 16.3 12.9 00:08 72.0
23/09 11:21 16.4 16.3 12.9 00:08 66.0
23/09 11:20 16.4 16.3 12.9 00:08 68.0
23/09 11:19 16.4 16.4 12.9 00:08 56.0
23/09 11:18 16.4 16.4 12.9 00:08 50.0
23/09 11:17 16.5 16.5 13 00:08 46.0
23/09 11:16 16.5 16.5 13 00:08 44.0
23/09 11:15 16.5 16.5 13 00:08 46.0
23/09 11:14 16.5 16.4 12.8 00:08 42.0
23/09 11:13 16.6 16.6 12.9 00:08 38.0
23/09 11:12 16.6 16.6 12.9 00:08 38.0
23/09 11:11 16.6 16.5 12.9 00:08 36.0
23/09 11:10 16.6 16.6 12.9 00:08 32.0
23/09 11:09 16.6 16.7 12.9 00:08 34.0
23/09 11:08 16.6 16.7 12.9 00:08 34.0
23/09 11:07 16.6 16.7 12.9 00:08 32.0
23/09 11:06 16.6 16.7 12.9 00:08 38.0
23/09 11:05 16.6 16.7 12.9 00:08 38.0
23/09 11:04 16.6 16.7 12.9 00:08 36.0
23/09 11:03 16.7 16.9 12.8 00:08 40.0
23/09 11:02 16.7 16.8 12.8 00:08 46.0
23/09 11:01 16.7 16.8 12.8 00:08 44.0
23/09 11:00 16.8 17 12.9 00:08 38.0
23/09 10:59 16.8 16.9 12.9 00:08 38.0
23/09 10:58 16.8 16.8 12.9 00:08 42.0
23/09 10:57 16.8 16.8 12.7 00:08 50.0
23/09 10:56 16.8 16.8 12.7 00:08 48.0
23/09 10:55 16.8 16.8 12.7 00:08 42.0
23/09 10:54 16.8 16.8 12.7 00:08 50.0
23/09 10:53 16.8 16.8 12.7 00:08 56.0
23/09 10:52 16.8 16.8 12.7 00:08 60.0
23/09 10:51 16.8 16.8 12.7 00:08 56.0
23/09 10:50 16.9 16.9 12.6 00:08 60.0
23/09 10:49 16.9 16.9 12.6 00:08 60.0
23/09 10:48 16.9 16.9 12.6 00:08 60.0
23/09 10:47 16.9 16.9 12.6 00:08 54.0
23/09 10:46 16.9 16.9 12.6 00:08 52.0
23/09 10:45 17.0 17.1 12.7 00:08 44.0
23/09 10:44 17.0 17.1 12.7 00:08 48.0
23/09 10:43 17.0 17.1 12.5 00:08 44.0
23/09 10:42 17.0 17.1 12.5 00:08 44.0
23/09 10:41 17.1 17.2 12.6 00:08 44.0
23/09 10:40 17.1 17.2 12.6 00:08 50.0
23/09 10:39 17.1 17.2 12.6 00:08 52.0
23/09 10:38 17.0 17 12.5 00:08 58.0
23/09 10:37 17.1 17.1 12.6 00:08 54.0
23/09 10:36 17.1 17.1 12.6 00:08 56.0
23/09 10:35 17.1 17.1 12.6 00:08 46.0
23/09 10:34 17.1 17.1 12.8 00:08 40.0
23/09 10:33 17.1 17 12.8 00:08 38.0
23/09 10:32 17.1 17 12.8 00:08 38.0
23/09 10:31 17.1 17 12.6 00:08 38.0
23/09 10:30 17.1 16.9 12.6 00:08 44.0
23/09 10:29 17.1 16.9 12.6 00:08 48.0
23/09 10:28 17.1 16.9 12.6 00:08 52.0
23/09 10:27 17.1 16.9 12.6 00:08 48.0
23/09 10:26 17.1 17 12.8 00:08 46.0
23/09 10:25 17.1 17 12.8 00:08 50.0
23/09 10:24 17.1 17.1 12.8 00:08 52.0
23/09 10:23 17.1 17.1 12.8 00:08 56.0
23/09 10:22 17.1 17.1 12.8 00:08 56.0
23/09 10:21 17.1 17.1 12.8 00:08 48.0
23/09 10:20 17.1 17.1 12.8 00:08 44.0
23/09 10:19 17.2 17.2 12.9 00:08 42.0
23/09 10:18 17.2 17.3 12.9 00:08 40.0
23/09 10:17 17.3 17.4 13 00:08 44.0
23/09 10:16 17.3 17.3 13 00:08 34.0
23/09 10:15 17.3 17.3 13 00:08 34.0
23/09 10:14 17.3 17.2 13 00:08 38.0
23/09 10:13 17.3 17.2 13 00:08 40.0
23/09 10:12 17.3 17.3 13 00:08 40.0
23/09 10:11 17.3 17.3 13 00:08 44.0
23/09 10:10 17.2 17.2 12.9 00:08 58.0
23/09 10:09 17.2 17.1 12.9 00:08 66.0
23/09 10:08 17.2 17.2 12.9 00:08 78.0
23/09 10:07 17.2 17.2 13.1 00:08 78.0
23/09 10:06 17.1 17.1 13 00:08 66.0
23/09 10:05 17.1 17.2 13 00:08 64.0
23/09 10:04 17.1 17.2 13 00:08 54.0
23/09 10:03 17.0 17.1 12.9 00:08 52.0
23/09 10:02 17.0 17.2 13.1 00:08 52.0
23/09 10:01 17.0 17.3 13.1 00:08 52.0
23/09 10:00 16.9 17.1 13 00:08 52.0
23/09 09:59 16.9 17.1 13 00:08 58.0
23/09 09:58 16.8 17 13.1 00:08 62.0
23/09 09:57 16.8 17.1 13.3 00:08 52.0
23/09 09:56 16.7 17 13.2 00:08 50.0
23/09 09:55 16.7 17 13.4 00:08 56.0
23/09 09:54 16.7 17 13.4 00:08 54.0
23/09 09:53 16.6 16.9 13.3 00:08 48.0
23/09 09:52 16.6 16.9 13.5 00:08 44.0
23/09 09:51 16.5 16.7 13.4 00:08 46.0
23/09 09:50 16.5 16.8 13.4 00:08 48.0
23/09 09:49 16.4 16.6 13.3 00:08 52.0
23/09 09:48 16.4 16.7 13.5 00:08 58.0
23/09 09:47 16.3 16.6 13.4 00:08 64.0
23/09 09:46 16.2 16.4 13.5 00:08 68.0
23/09 09:45 16.2 16.3 13.5 00:08 66.0
23/09 09:44 16.2 16.4 13.5 00:08 70.0
23/09 09:43 16.2 16.3 13.7 00:08 66.0
23/09 09:42 16.1 16.1 13.6 00:08 68.0
23/09 09:41 16.1 16.1 13.6 00:08 84.0
23/09 09:40 16.1 16.1 13.6 00:08 84.0
23/09 09:39 16.1 16.1 13.6 00:08 70.0
23/09 09:38 16.1 16 13.6 00:08 64.0
23/09 09:37 16.2 16.1 13.5 00:08 48.0
23/09 09:36 16.2 16.1 13.5 00:08 44.0
23/09 09:35 16.2 16.2 13.5 00:08 40.0
23/09 09:34 16.3 16.3 13.4 00:08 38.0
23/09 09:33 16.3 16.4 13.4 00:08 36.0
23/09 09:32 16.4 16.6 13.3 00:08 38.0
23/09 09:31 16.5 16.7 13.4 00:08 40.0
23/09 09:30 16.5 16.8 13.2 00:08 40.0
23/09 09:29 16.6 17 13.3 00:08 40.0
23/09 09:28 16.6 17 13.3 00:08 44.0
23/09 09:27 16.7 17.1 13.2 00:08 46.0
23/09 09:26 16.7 17.1 13.2 00:08 50.0
23/09 09:25 16.8 17.2 13.3 00:08 50.0
23/09 09:24 16.8 17.2 13.1 00:08 48.0
23/09 09:23 16.8 17.2 13.3 00:08 50.0
23/09 09:22 16.7 17.1 13.2 00:08 54.0
23/09 09:21 16.7 17 13.2 00:08 56.0
23/09 09:20 16.7 16.9 13.2 00:08 64.0
23/09 09:19 16.8 16.9 13.1 00:08 68.0
23/09 09:18 16.8 16.9 13.1 00:08 72.0
23/09 09:17 16.8 16.9 13.1 00:08 82.0
23/09 09:16 16.8 16.9 13.1 00:08 66.0
23/09 09:15 16.9 17 13.2 00:08 62.0
23/09 09:14 16.9 17 13 00:08 72.0
23/09 09:13 17.0 17.1 13.1 00:08 92.0
23/09 09:12 17.0 17.2 13.1 00:08 106.0
23/09 09:11 16.9 17 13 00:08 100.0
23/09 09:10 16.9 17.1 13.2 00:08 84.0
23/09 09:09 16.9 17.2 13.2 00:08 82.0
23/09 09:08 16.8 17.2 13.1 00:08 100.0
23/09 09:07 16.8 17.3 13.1 00:08 112.0
23/09 09:06 16.8 17.4 13.3 00:08 118.0
23/09 09:05 16.7 17.2 13.2 00:08 128.0
23/09 09:04 16.7 17.2 13.2 00:07 138.0
23/09 09:03 16.6 17.1 13.3 00:06 134.0
23/09 09:02 16.5 17 13.4 00:05 132.0
23/09 09:01 16.4 16.9 13.5 00:04 142.0
23/09 09:00 16.4 16.8 13.5 00:03 146.0
23/09 08:59 16.3 16.7 13.6 00:02 176.0
23/09 08:58 16.2 16.5 13.7 00:01 158.0
23/09 08:57 16.2 16.5 13.7 00:00 114.0
23/09 08:56 16.1 16.3 13.6 00:00 92.0
23/09 08:55 16.0 16.1 13.5 00:00 78.0
23/09 08:54 16.0 16.1 13.6 00:00 70.0
23/09 08:53 15.9 15.9 13.5 00:00 72.0
23/09 08:52 15.9 15.9 13.5 00:00 78.0
23/09 08:51 15.8 15.8 13.6 00:00 64.0
23/09 08:50 15.8 15.8 13.6 00:00 68.0
23/09 08:49 15.8 15.9 13.6 00:00 64.0
23/09 08:48 15.7 15.7 13.5 00:00 58.0
23/09 08:47 15.7 15.7 13.7 00:00 62.0
23/09 08:46 15.7 15.7 13.7 00:00 58.0
23/09 08:45 15.7 15.7 13.7 00:00 62.0
23/09 08:44 15.7 15.7 13.7 00:00 70.0
23/09 08:43 15.6 15.6 13.6 00:00 76.0
23/09 08:42 15.6 15.6 13.6 00:00 72.0
23/09 08:41 15.6 15.7 13.6 00:00 62.0
23/09 08:40 15.6 15.7 13.6 00:00 58.0
23/09 08:39 15.6 15.7 13.6 00:00 76.0
23/09 08:38 15.6 15.7 13.6 00:00 62.0
23/09 08:37 15.6 15.7 13.6 00:00 52.0
23/09 08:36 15.6 15.7 13.6 00:00 48.0
23/09 08:35 15.6 15.7 13.6 00:00 48.0
23/09 08:34 15.6 15.8 13.6 00:00 42.0
23/09 08:33 15.6 15.7 13.6 00:00 42.0
23/09 08:32 15.6 15.7 13.6 00:00 40.0
23/09 08:31 15.6 15.7 13.6 00:00 38.0
23/09 08:30 15.6 15.6 13.6 00:00 36.0
23/09 08:29 15.6 15.6 13.6 00:00 36.0
23/09 08:28 15.6 15.6 13.6 00:00 32.0
23/09 08:27 15.6 15.6 13.6 00:00 30.0
23/09 08:26 15.6 15.6 13.6 00:00 30.0
23/09 08:25 15.6 15.6 13.6 00:00 30.0
23/09 08:24 15.6 15.7 13.6 00:00 26.0
23/09 08:23 15.5 15.5 13.5 00:00 24.0
23/09 08:22 15.5 15.5 13.5 00:00 24.0
23/09 08:21 15.5 15.5 13.5 00:00 24.0
23/09 08:20 15.5 15.5 13.5 00:00 20.0
23/09 08:19 15.5 15.5 13.3 00:00 20.0
23/09 08:18 15.5 15.5 13.3 00:00 20.0
23/09 08:17 15.5 15.5 13.3 00:00 20.0
23/09 08:16 15.6 15.5 13.4 00:00 22.0
23/09 08:15 15.6 15.5 13.4 00:00 18.0
23/09 08:14 15.6 15.4 13.4 00:00 18.0
23/09 08:13 15.6 15.4 13.4 00:00 18.0
23/09 08:12 15.6 15.4 13.4 00:00 18.0
23/09 08:11 15.6 15.4 13.2 00:00 18.0
23/09 08:10 15.6 15.4 13.2 00:00 18.0
23/09 08:09 15.6 15.4 13.2 00:00 18.0
23/09 08:08 15.6 15.4 13.2 00:00 18.0
23/09 08:07 15.6 15.3 13.2 00:00 16.0
23/09 08:06 15.6 15.3 13.2 00:00 16.0
23/09 08:05 15.6 15.3 13.2 00:00 18.0
23/09 08:04 15.7 15.4 13.3 00:00 20.0
23/09 08:03 15.7 15.4 13.3 00:00 20.0
23/09 08:02 15.7 15.5 13.3 00:00 24.0
23/09 08:01 15.7 15.5 13.2 00:00 24.0
23/09 08:00 15.7 15.5 13.2 00:00 24.0
23/09 07:59 15.7 15.5 13.2 00:00 24.0
23/09 07:58 15.7 15.4 13.2 00:00 24.0
23/09 07:57 15.7 15.4 13.2 00:00 24.0
23/09 07:56 15.7 15.4 13.2 00:00 26.0
23/09 07:55 15.7 15.4 13.2 00:00 30.0
23/09 07:54 15.7 15.5 13.2 00:00 28.0
23/09 07:53 15.6 15.3 13.1 00:00 24.0
23/09 07:52 15.6 15.4 13.1 00:00 22.0
23/09 07:51 15.6 15.4 13.1 00:00 24.0
23/09 07:50 15.6 15.4 13.1 00:00 24.0
23/09 07:49 15.6 15.4 13.1 00:00 22.0
23/09 07:48 15.7 15.6 13.2 00:00 20.0
23/09 07:47 15.7 15.6 13.2 00:00 20.0
23/09 07:46 15.7 15.7 13.2 00:00 22.0
23/09 07:45 15.7 15.8 13 00:00 20.0
23/09 07:44 15.7 15.8 13 00:00 20.0
23/09 07:43 15.6 15.6 12.9 00:00 20.0
23/09 07:42 15.6 15.6 12.9 00:00 20.0
23/09 07:41 15.6 15.6 12.9 00:00 22.0
23/09 07:40 15.6 15.5 12.9 00:00 22.0
23/09 07:39 15.6 15.5 12.9 00:00 22.0
23/09 07:38 15.5 15.3 12.8 00:00 22.0
23/09 07:37 15.5 15.3 13 00:00 22.0
23/09 07:36 15.5 15.2 13 00:00 20.0
23/09 07:35 15.5 15.2 13 00:00 22.0
23/09 07:34 15.5 15.1 13 00:00 20.0
23/09 07:33 15.5 15.1 13 00:00 20.0
23/09 07:32 15.5 15.1 13 00:00 18.0
23/09 07:31 15.4 15 12.9 00:00 18.0
23/09 07:30 15.4 15 12.9 00:00 18.0
23/09 07:29 15.4 15 12.9 00:00 18.0
23/09 07:28 15.4 14.9 12.9 00:00 18.0
23/09 07:27 15.4 14.9 12.9 00:00 18.0
23/09 07:26 15.3 14.8 12.8 00:00 20.0
23/09 07:25 15.3 14.8 12.8 00:00 18.0
23/09 07:24 15.3 14.8 12.8 00:00 20.0
23/09 07:23 15.3 14.8 12.8 00:00 20.0
23/09 07:22 15.3 14.8 12.8 00:00 18.0
23/09 07:21 15.3 14.8 12.8 00:00 18.0
23/09 07:20 15.3 14.8 12.8 00:00 18.0
23/09 07:19 15.3 14.8 12.8 00:00 18.0
23/09 07:18 15.4 14.9 12.9 00:00 16.0
23/09 07:17 15.4 14.9 12.9 00:00 14.0
23/09 07:16 15.4 14.9 12.9 00:00 14.0
23/09 07:15 15.4 14.9 12.9 00:00 12.0
23/09 07:14 15.4 14.9 12.9 00:00 12.0
23/09 07:13 15.4 14.9 12.9 00:00 12.0
23/09 07:12 15.4 14.9 12.9 00:00 12.0
23/09 07:11 15.4 14.9 12.9 00:00 12.0
23/09 07:10 15.3 14.7 12.8 00:00 10.0
23/09 07:09 15.3 14.7 12.8 00:00 10.0
23/09 07:08 15.3 14.7 12.8 00:00 12.0
23/09 07:07 15.3 14.7 12.8 00:00 12.0
23/09 07:06 15.3 14.7 12.8 00:00 12.0
23/09 07:05 15.3 14.7 12.8 00:00 12.0
23/09 07:04 15.3 14.7 12.8 00:00 12.0
23/09 07:03 15.2 14.5 12.7 00:00 12.0
23/09 07:02 15.2 14.5 12.7 00:00 12.0
23/09 07:01 15.2 14.5 12.7 00:00 12.0
23/09 07:00 15.2 14.4 12.7 00:00 12.0
23/09 06:59 15.2 14.4 12.7 00:00 12.0
23/09 06:58 15.3 14.5 12.8 00:00 12.0
23/09 06:57 15.3 14.5 12.8 00:00 10.0
23/09 06:56 15.3 14.5 12.8 00:00 10.0
23/09 06:55 15.3 14.5 12.8 00:00 10.0
23/09 06:54 15.3 14.5 12.8 00:00 10.0
23/09 06:53 15.3 14.5 12.8 00:00 8.0
23/09 06:52 15.3 14.5 12.8 00:00 8.0
23/09 06:51 15.3 14.4 12.8 00:00 8.0
23/09 06:50 15.2 14.3 12.7 00:00 8.0
23/09 06:49 15.3 14.4 12.8 00:00 8.0
23/09 06:48 15.2 14.3 12.7 00:00 6.0
23/09 06:47 15.2 14.3 12.7 00:00 8.0
23/09 06:46 15.2 14.3 12.7 00:00 8.0
23/09 06:45 15.2 14.2 12.7 00:00 6.0
23/09 06:44 15.2 14.2 12.7 00:00 6.0
23/09 06:43 15.2 14.3 12.7 00:00 6.0
23/09 06:42 15.2 14.3 12.7 00:00 8.0
23/09 06:41 15.2 14.3 12.7 00:00 8.0
23/09 06:40 15.2 14.3 12.7 00:00 6.0
23/09 06:39 15.2 14.3 12.7 00:00 6.0
23/09 06:38 15.1 14.2 12.6 00:00 6.0
23/09 06:37 15.1 14.2 12.6 00:00 6.0
23/09 06:36 15.1 14.2 12.6 00:00 6.0
23/09 06:35 15.1 14.2 12.6 00:00 6.0
23/09 06:34 15.1 14.2 12.6 00:00 6.0
23/09 06:33 15.1 14.3 12.8 00:00 6.0
23/09 06:32 15.0 14.1 12.7 00:00 6.0
23/09 06:31 15.0 14.2 12.7 00:00 6.0
23/09 06:30 15.0 14.2 12.7 00:00 6.0
23/09 06:29 15.0 14.1 12.7 00:00 6.0
23/09 06:28 15.0 14.1 12.7 00:00 6.0
23/09 06:27 15.0 14.2 12.7 00:00 6.0
23/09 06:26 15.0 14.2 12.7 00:00 6.0
23/09 06:25 15.0 14.2 12.7 00:00 4.0
23/09 06:24 15.0 14.2 12.5 00:00 4.0
23/09 06:23 15.0 14.2 12.5 00:00 4.0
23/09 06:22 15.0 14.2 12.5 00:00 4.0
23/09 06:21 15.0 14.3 12.5 00:00 4.0
23/09 06:20 15.0 14.3 12.5 00:00 4.0
23/09 06:19 15.0 14.3 12.5 00:00 0.0
23/09 06:18 15.0 14.3 12.5 00:00 0.0
23/09 06:17 15.0 14.3 12.5 00:00 4.0
23/09 06:16 15.0 14.2 12.3 00:00 0.0
23/09 06:15 15.0 14.2 12.3 00:00 0.0
23/09 06:14 15.0 14.2 12.3 00:00 0.0
23/09 06:13 15.0 14.1 12.3 00:00 0.0
23/09 06:12 15.0 14.1 12.3 00:00 0.0
23/09 06:11 15.0 14.1 12.3 00:00 0.0
23/09 06:10 15.1 14.2 12.4 00:00 0.0
23/09 06:09 15.1 14.2 12.2 00:00 0.0
23/09 06:08 15.1 14.2 12.2 00:00 0.0
23/09 06:07 15.1 14.2 12.2 00:00 0.0
23/09 06:06 15.1 14.2 12.2 00:00 0.0
23/09 06:05 15.1 14.2 12.2 00:00 0.0
23/09 06:04 15.2 14.4 12.3 00:00 0.0
23/09 06:03 15.2 14.4 12.1 00:00 0.0
23/09 06:02 15.2 14.5 12.1 00:00 0.0
23/09 06:01 15.2 14.5 12.1 00:00 0.0
23/09 06:00 15.2 14.6 12.1 00:00 0.0
23/09 05:59 15.3 14.8 12.2 00:00 0.0
23/09 05:58 15.3 14.8 12 00:00 0.0
23/09 05:57 15.3 14.9 12 00:00 0.0
23/09 05:56 15.2 14.8 12.1 00:00 0.0
23/09 05:55 15.2 14.9 12.1 00:00 0.0
23/09 05:54 15.2 14.9 12.1 00:00 0.0
23/09 05:53 15.2 14.9 11.9 00:00 0.0
23/09 05:52 15.2 14.9 11.9 00:00 0.0
23/09 05:51 15.2 14.9 11.9 00:00 0.0
23/09 05:50 15.3 15.1 12 00:00 0.0
23/09 05:49 15.3 15.1 12 00:00 4.0
23/09 05:48 15.3 15.1 12 00:00 4.0
23/09 05:47 15.3 15.1 12 00:00 0.0
23/09 05:46 15.3 15.2 11.8 00:00 4.0
23/09 05:45 15.3 15.1 11.8 00:00 4.0
23/09 05:44 15.3 15.1 11.8 00:00 4.0
23/09 05:43 15.3 15.1 11.8 00:00 4.0
23/09 05:42 15.3 15.1 11.8 00:00 4.0
23/09 05:41 15.3 15.1 11.8 00:00 4.0
23/09 05:40 15.3 15.2 11.8 00:00 4.0
23/09 05:39 15.3 15.1 11.8 00:00 4.0
23/09 05:38 15.3 15.1 11.8 00:00 4.0
23/09 05:37 15.3 15.1 11.8 00:00 4.0
23/09 05:36 15.3 15.2 11.8 00:00 0.0
23/09 05:35 15.3 15.2 11.8 00:00 0.0
23/09 05:34 15.3 15.3 11.8 00:00 4.0
23/09 05:33 15.2 15.2 11.7 00:00 4.0
23/09 05:32 15.2 15.2 11.7 00:00 4.0
23/09 05:31 15.2 15.3 11.7 00:00 4.0
23/09 05:30 15.2 15.4 11.7 00:00 4.0
23/09 05:29 15.1 15.3 11.6 00:00 4.0
23/09 05:28 15.1 15.3 11.8 00:00 4.0
23/09 05:27 15.0 15.3 11.7 00:00 4.0
23/09 05:26 14.9 15.3 11.6 00:00 4.0
23/09 05:25 14.9 15.4 11.6 00:00 4.0
23/09 05:24 14.9 15.3 11.6 00:00 4.0
23/09 05:23 14.9 15.3 11.6 00:00 4.0
23/09 05:22 14.8 15.2 11.5 00:00 4.0
23/09 05:21 14.8 15.3 11.5 00:00 4.0
23/09 05:20 14.8 15.3 11.5 00:00 4.0
23/09 05:19 14.7 15.1 11.4 00:00 4.0
23/09 05:18 14.7 15.1 11.4 00:00 4.0
23/09 05:17 14.7 15 11.4 00:00 4.0
23/09 05:16 14.7 14.9 11.4 00:00 4.0
23/09 05:15 14.8 15 11.5 00:00 4.0
23/09 05:14 14.8 14.9 11.5 00:00 4.0
23/09 05:13 14.8 14.8 11.5 00:00 4.0
23/09 05:12 14.8 14.8 11.5 00:00 4.0
23/09 05:11 14.8 14.7 11.5 00:00 4.0
23/09 05:10 14.8 14.6 11.4 00:00 4.0
23/09 05:09 14.9 14.6 11.5 00:00 4.0
23/09 05:08 14.9 14.6 11.5 00:00 4.0
23/09 05:07 14.9 14.5 11.6 00:00 0.0
23/09 05:06 14.9 14.5 11.5 00:00 4.0
23/09 05:05 14.9 14.5 11.6 00:00 4.0
23/09 05:04 14.9 14.5 11.6 00:00 4.0
23/09 05:03 14.9 14.5 11.5 00:00 4.0
23/09 05:02 14.9 14.4 11.5 00:00 4.0
23/09 05:01 14.9 14.4 11.6 00:00 4.0
23/09 05:00 14.9 14.4 11.6 00:00 4.0
23/09 04:59 14.8 14.3 11.5 00:00 4.0
23/09 04:58 14.8 14.4 11.5 00:00 4.0
23/09 04:57 14.8 14.4 11.5 00:00 4.0
23/09 04:56 14.7 14.2 11.4 00:00 4.0
23/09 04:55 14.7 14.2 11.4 00:00 4.0
23/09 04:54 14.7 14.2 11.4 00:00 4.0
23/09 04:53 14.7 14.2 11.4 00:00 4.0
23/09 04:52 14.7 14.1 11.4 00:00 0.0
23/09 04:51 14.7 14.1 11.4 00:00 4.0
23/09 04:50 14.6 13.9 11.3 00:00 4.0
23/09 04:49 14.6 13.9 11.3 00:00 4.0
23/09 04:48 14.6 13.9 11.3 00:00 4.0
23/09 04:47 14.6 13.9 11.3 00:00 4.0
23/09 04:46 14.6 13.9 11.3 00:00 4.0
23/09 04:45 14.6 13.9 11.3 00:00 4.0
23/09 04:44 14.6 13.8 11.3 00:00 4.0
23/09 04:43 14.6 13.8 11.3 00:00 4.0
23/09 04:42 14.6 13.8 11.5 00:00 4.0
23/09 04:41 14.5 13.6 11.4 00:00 4.0
23/09 04:40 14.5 13.6 11.4 00:00 4.0
23/09 04:39 14.4 13.5 11.5 00:00 4.0
23/09 04:38 14.3 13.3 11.4 00:00 4.0
23/09 04:37 14.3 13.3 11.4 00:00 4.0
23/09 04:36 14.3 13.2 11.4 00:00 4.0
23/09 04:35 14.3 13.2 11.4 00:00 0.0
23/09 04:34 14.3 13.2 11.4 00:00 4.0
23/09 04:33 14.3 13.1 11.4 00:00 4.0
23/09 04:32 14.3 13.1 11.4 00:00 4.0
23/09 04:31 14.3 13.1 11.4 00:00 4.0
23/09 04:30 14.2 12.9 11.3 00:00 4.0
23/09 04:29 14.2 12.9 11.3 00:00 4.0
23/09 04:28 14.1 12.8 11.2 00:00 4.0
23/09 04:27 14.1 12.9 11.2 00:00 4.0
23/09 04:26 14.0 12.8 11.1 00:00 0.0
23/09 04:25 14.0 12.8 11.1 00:00 4.0
23/09 04:24 14.0 12.9 11.1 00:00 0.0
23/09 04:23 14.0 12.9 11.1 00:00 4.0
23/09 04:22 13.9 12.8 11 00:00 4.0
23/09 04:21 13.9 12.8 11 00:00 0.0
23/09 04:20 13.9 12.8 11 00:00 0.0
23/09 04:19 13.9 12.9 11 00:00 4.0
23/09 04:18 13.9 12.9 11 00:00 4.0
23/09 04:17 13.9 12.9 11 00:00 4.0
23/09 04:16 13.9 12.9 11 00:00 4.0
23/09 04:15 13.9 12.9 11 00:00 4.0
23/09 04:14 13.9 12.9 11 00:00 4.0
23/09 04:13 13.9 12.9 11 00:00 4.0
23/09 04:12 13.9 12.9 11 00:00 4.0
23/09 04:11 13.9 13 11 00:00 0.0
23/09 04:10 13.9 13 10.8 00:00 4.0
23/09 04:09 13.9 13 10.8 00:00 0.0
23/09 04:08 13.9 13 10.8 00:00 4.0
23/09 04:07 13.9 13 10.8 00:00 4.0
23/09 04:06 14.0 13.1 10.9 00:00 4.0
23/09 04:05 14.0 13.1 10.9 00:00 4.0
23/09 04:04 14.0 13.1 10.9 00:00 4.0
23/09 04:03 14.0 13.1 10.9 00:00 4.0
23/09 04:02 13.9 13 10.8 00:00 4.0
23/09 04:01 13.9 13 10.8 00:00 4.0
23/09 04:00 13.9 13 10.8 00:00 4.0
23/09 03:59 13.9 13 10.7 00:00 4.0
23/09 03:58 13.9 13 10.7 00:00 4.0
23/09 03:57 13.9 13.1 10.7 00:00 4.0
23/09 03:56 13.9 13.1 10.7 00:00 4.0
23/09 03:55 13.9 13.1 10.7 00:00 4.0
23/09 03:54 13.9 13.2 10.7 00:00 4.0
23/09 03:53 14.0 13.4 10.8 00:00 4.0
23/09 03:52 14.0 13.5 10.6 00:00 0.0
23/09 03:51 14.0 13.7 10.6 00:00 4.0
23/09 03:50 14.1 13.9 10.7 00:00 4.0
23/09 03:49 14.2 14.2 10.8 00:00 4.0
23/09 03:48 14.2 14.3 10.8 00:00 4.0
23/09 03:47 14.2 14.5 10.8 00:00 4.0
23/09 03:46 14.1 14.5 10.7 00:00 4.0
23/09 03:45 14.1 14.6 10.7 00:00 4.0
23/09 03:44 14.0 14.6 10.6 00:00 4.0
23/09 03:43 13.9 14.7 10.5 00:00 4.0
23/09 03:42 13.8 14.7 10.2 00:00 4.0
23/09 03:41 13.8 14.6 10.2 00:00 4.0
23/09 03:40 13.8 14.5 10.2 00:00 4.0
23/09 03:39 13.8 14.4 10.2 00:00 4.0
23/09 03:38 13.8 14.3 10.2 00:00 4.0
23/09 03:37 13.7 14.1 10.1 00:00 0.0
23/09 03:36 13.7 14.1 9.9 00:00 4.0
23/09 03:35 13.7 14 9.9 00:00 4.0
23/09 03:34 13.7 14 9.9 00:00 4.0
23/09 03:33 13.7 13.9 9.9 00:00 4.0
23/09 03:32 13.7 13.7 9.9 00:00 4.0
23/09 03:31 13.7 13.7 9.9 00:00 4.0
23/09 03:30 13.7 13.7 9.9 00:00 4.0
23/09 03:29 13.7 13.7 9.9 00:00 4.0
23/09 03:28 13.7 13.6 9.9 00:00 4.0
23/09 03:27 13.6 13.4 9.8 00:00 4.0
23/09 03:26 13.6 13.4 9.8 00:00 0.0
23/09 03:25 13.6 13.3 9.8 00:00 4.0
23/09 03:24 13.6 13.3 9.8 00:00 4.0
23/09 03:23 13.6 13.2 9.8 00:00 4.0
23/09 03:22 13.6 13.2 9.8 00:00 4.0
23/09 03:21 13.6 13.1 9.8 00:00 4.0
23/09 03:20 13.6 13.1 9.8 00:00 0.0
23/09 03:19 13.6 13.1 9.8 00:00 4.0
23/09 03:18 13.5 12.9 9.7 00:00 4.0
23/09 03:17 13.5 12.9 9.7 00:00 4.0
23/09 03:16 13.5 12.8 9.7 00:00 4.0
23/09 03:15 13.5 12.8 9.7 00:00 4.0
23/09 03:14 13.5 12.8 9.7 00:00 4.0
23/09 03:13 13.5 12.8 9.7 00:00 4.0
23/09 03:12 13.4 12.7 9.6 00:00 4.0
23/09 03:11 13.4 12.6 9.6 00:00 4.0
23/09 03:10 13.4 12.6 9.6 00:00 4.0
23/09 03:09 13.4 12.6 9.6 00:00 0.0
23/09 03:08 13.3 12.5 9.5 00:00 4.0
23/09 03:07 13.3 12.5 9.5 00:00 4.0
23/09 03:06 13.3 12.5 9.5 00:00 4.0
23/09 03:05 13.3 12.4 9.5 00:00 0.0
23/09 03:04 13.3 12.4 9.3 00:00 4.0
23/09 03:03 13.3 12.4 9.3 00:00 4.0
23/09 03:02 13.3 12.4 9.3 00:00 4.0
23/09 03:01 13.3 12.4 9.3 00:00 4.0
23/09 03:00 13.3 12.5 9.3 00:00 4.0
23/09 02:59 13.3 12.5 9.3 00:00 4.0
23/09 02:58 13.3 12.5 9.3 00:00 4.0
23/09 02:57 13.3 12.5 9.1 00:00 4.0
23/09 02:56 13.3 12.5 9.1 00:00 4.0
23/09 02:55 13.3 12.5 9.1 00:00 4.0
23/09 02:54 13.3 12.5 9.1 00:00 4.0
23/09 02:53 13.3 12.5 9.1 00:00 4.0
23/09 02:52 13.3 12.5 9.1 00:00 4.0
23/09 02:51 13.3 12.6 9.1 00:00 4.0
23/09 02:50 13.3 12.6 9.1 00:00 4.0
23/09 02:49 13.3 12.6 9.1 00:00 4.0
23/09 02:48 13.3 12.6 9.1 00:00 4.0
23/09 02:47 13.3 12.6 9.1 00:00 0.0
23/09 02:46 13.3 12.6 9.1 00:00 4.0
23/09 02:45 13.3 12.6 9.1 00:00 4.0
23/09 02:44 13.3 12.6 9.1 00:00 4.0
23/09 02:43 13.3 12.6 9.1 00:00 4.0
23/09 02:42 13.3 12.6 9.1 00:00 4.0
23/09 02:41 13.3 12.6 9.3 00:00 4.0
23/09 02:40 13.3 12.6 9.3 00:00 4.0
23/09 02:39 13.3 12.6 9.3 00:00 4.0
23/09 02:38 13.3 12.6 9.3 00:00 4.0
23/09 02:37 13.2 12.5 9.2 00:00 0.0
23/09 02:36 13.2 12.5 9.2 00:00 4.0
23/09 02:35 13.2 12.5 9.4 00:00 4.0
23/09 02:34 13.1 12.4 9.3 00:00 4.0
23/09 02:33 13.1 12.5 9.5 00:00 4.0
23/09 02:32 13.1 12.5 9.5 00:00 4.0
23/09 02:31 13.1 12.4 9.5 00:00 4.0
23/09 02:30 13.1 12.4 9.7 00:00 4.0
23/09 02:29 13.1 12.5 9.7 00:00 4.0
23/09 02:28 13.1 12.5 9.7 00:00 4.0
23/09 02:27 13.1 12.5 9.7 00:00 4.0
23/09 02:26 13.1 12.5 9.7 00:00 0.0
23/09 02:25 13.1 12.6 9.7 00:00 4.0
23/09 02:24 13.1 12.6 9.7 00:00 4.0
23/09 02:23 13.1 12.7 9.7 00:00 4.0
23/09 02:22 13.1 12.7 9.7 00:00 0.0
23/09 02:21 13.1 12.8 9.7 00:00 4.0
23/09 02:20 13.1 12.9 9.5 00:00 4.0
23/09 02:19 13.1 13 9.7 00:00 4.0
23/09 02:18 13.1 13.1 9.5 00:00 4.0
23/09 02:17 13.0 13.1 9.4 00:00 4.0
23/09 02:16 13.0 13.2 9.4 00:00 4.0
23/09 02:15 13.1 13.4 9.5 00:00 4.0
23/09 02:14 13.0 13.3 9.6 00:00 4.0
23/09 02:13 13.0 13.3 9.6 00:00 4.0
23/09 02:12 13.1 13.5 9.7 00:00 4.0
23/09 02:11 13.1 13.5 9.7 00:00 4.0
23/09 02:10 13.1 13.5 9.7 00:00 4.0
23/09 02:09 13.1 13.5 9.7 00:00 4.0
23/09 02:08 13.1 13.4 9.7 00:00 4.0
23/09 02:07 13.0 13.2 9.6 00:00 4.0
23/09 02:06 13.0 13.1 9.6 00:00 4.0
23/09 02:05 13.0 13 9.6 00:00 0.0
23/09 02:04 13.0 13 9.6 00:00 4.0
23/09 02:03 13.0 12.9 9.6 00:00 4.0
23/09 02:02 13.0 12.8 9.8 00:00 4.0
23/09 02:01 13.0 12.8 9.8 00:00 4.0
23/09 02:00 13.0 12.7 9.8 00:00 4.0
23/09 01:59 13.0 12.6 9.8 00:00 4.0
23/09 01:58 13.0 12.5 9.8 00:00 4.0
23/09 01:57 13.0 12.5 9.8 00:00 4.0
23/09 01:56 13.0 12.5 10 00:00 4.0
23/09 01:55 12.9 12.4 9.9 00:00 4.0
23/09 01:54 12.9 12.4 9.9 00:00 4.0
23/09 01:53 12.9 12.4 9.7 00:00 4.0
23/09 01:52 12.9 12.4 9.9 00:00 4.0
23/09 01:51 13.0 12.6 10 00:00 0.0
23/09 01:50 12.9 12.5 9.9 00:00 0.0
23/09 01:49 12.9 12.5 9.9 00:00 4.0
23/09 01:48 12.8 12.5 9.8 00:00 4.0
23/09 01:47 12.8 12.5 9.8 00:00 4.0
23/09 01:46 12.8 12.5 9.8 00:00 4.0
23/09 01:45 12.8 12.5 9.8 00:00 4.0
23/09 01:43 12.8 12.5 9.6 00:00 4.0
23/09 01:42 12.8 12.5 9.6 00:00 4.0
23/09 01:41 12.8 12.5 9.6 00:00 0.0
23/09 01:40 12.8 12.5 9.8 00:00 4.0
23/09 01:39 12.8 12.5 9.6 00:00 0.0
23/09 01:38 12.8 12.5 9.6 00:00 4.0
23/09 01:36 12.9 12.6 9.7 00:00 4.0
23/09 01:35 12.9 12.6 9.7 00:00 4.0
23/09 01:34 12.9 12.6 9.7 00:00 4.0
23/09 01:33 12.9 12.6 9.7 00:00 4.0
23/09 01:32 12.9 12.6 9.7 00:00 4.0
23/09 01:31 12.9 12.6 9.5 00:00 4.0
23/09 01:30 12.9 12.5 9.5 00:00 4.0
23/09 01:29 12.9 12.5 9.5 00:00 0.0
23/09 01:28 12.9 12.5 9.5 00:00 4.0
23/09 01:27 12.9 12.5 9.5 00:00 4.0
23/09 01:26 12.9 12.5 9.5 00:00 4.0
23/09 01:25 12.9 12.4 9.5 00:00 4.0
23/09 01:24 12.9 12.4 9.5 00:00 4.0
23/09 01:23 12.9 12.4 9.5 00:00 4.0
23/09 01:22 12.9 12.4 9.5 00:00 0.0
23/09 01:21 12.9 12.4 9.5 00:00 4.0
23/09 01:20 12.9 12.4 9.5 00:00 4.0
23/09 01:19 12.9 12.5 9.5 00:00 4.0
23/09 01:18 12.9 12.5 9.5 00:00 4.0
23/09 01:17 12.9 12.5 9.7 00:00 4.0
23/09 01:16 12.8 12.5 9.6 00:00 4.0
23/09 01:15 12.8 12.5 9.6 00:00 4.0
23/09 01:14 12.8 12.5 9.6 00:00 4.0
23/09 01:13 12.8 12.5 9.6 00:00 4.0
23/09 01:12 12.8 12.6 9.6 00:00 4.0
23/09 01:11 12.8 12.6 9.6 00:00 4.0
23/09 01:10 12.8 12.6 9.6 00:00 4.0
23/09 01:09 12.8 12.6 9.6 00:00 4.0
23/09 01:08 12.8 12.6 9.4 00:00 4.0
23/09 01:07 12.9 12.7 9.7 00:00 0.0
23/09 01:06 12.8 12.6 9.6 00:00 4.0
23/09 01:05 12.8 12.6 9.6 00:00 4.0
23/09 01:04 12.8 12.6 9.6 00:00 4.0
23/09 01:03 12.8 12.6 9.8 00:00 4.0
23/09 01:02 12.7 12.6 9.7 00:00 4.0
23/09 01:01 12.8 12.7 9.8 00:00 4.0
23/09 01:00 12.8 12.6 9.8 00:00 4.0
23/09 00:59 12.8 12.6 9.8 00:00 4.0
23/09 00:58 12.7 12.5 9.9 00:00 0.0
23/09 00:57 12.7 12.6 9.9 00:00 4.0
23/09 00:56 12.7 12.6 9.9 00:00 0.0
23/09 00:55 12.7 12.6 10 00:00 4.0
23/09 00:54 12.7 12.6 10 00:00 4.0
23/09 00:53 12.7 12.6 10 00:00 4.0
23/09 00:52 12.7 12.6 10 00:00 4.0
23/09 00:51 12.6 12.4 10.1 00:00 4.0
23/09 00:50 12.6 12.4 10.1 00:00 0.0
23/09 00:49 12.7 12.5 10.2 00:00 4.0
23/09 00:48 12.7 12.4 10.2 00:00 4.0
23/09 00:47 12.7 12.5 10.2 00:00 4.0
23/09 00:46 12.7 12.4 10.4 00:00 4.0
23/09 00:45 12.7 12.4 10.4 00:00 4.0
23/09 00:44 12.7 12.5 10.4 00:00 4.0
23/09 00:43 12.7 12.5 10.4 00:00 4.0
23/09 00:42 12.8 12.6 10.5 00:00 4.0
23/09 00:41 12.8 12.6 10.5 00:00 4.0
23/09 00:40 12.8 12.6 10.5 00:00 4.0
23/09 00:39 12.8 12.6 10.3 00:00 0.0
23/09 00:38 12.8 12.6 10.3 00:00 4.0
23/09 00:37 12.8 12.7 10.3 00:00 4.0
23/09 00:36 12.9 12.9 10.4 00:00 0.0
23/09 00:35 12.9 12.9 10.4 00:00 4.0
23/09 00:34 12.9 12.9 10.2 00:00 4.0
23/09 00:33 12.9 13 10.2 00:00 4.0
23/09 00:32 12.9 13 10.2 00:00 4.0
23/09 00:31 12.9 13 10.2 00:00 4.0
23/09 00:30 12.9 13 10.2 00:00 4.0
23/09 00:29 12.9 13 10.2 00:00 4.0
23/09 00:28 12.9 13 10.1 00:00 4.0
23/09 00:27 12.9 13 10.1 00:00 4.0
23/09 00:26 12.8 12.8 10 00:00 4.0
23/09 00:25 12.8 12.8 10 00:00 4.0
23/09 00:24 12.8 12.7 10 00:00 0.0
23/09 00:23 12.8 12.7 10 00:00 4.0
23/09 00:22 12.9 12.7 10.1 00:00 4.0
23/09 00:21 12.9 12.7 10.1 00:00 4.0
23/09 00:20 12.9 12.6 10.1 00:00 4.0
23/09 00:19 12.9 12.6 10.1 00:00 4.0
23/09 00:18 12.9 12.6 10.1 00:00 4.0
23/09 00:17 12.9 12.5 9.9 00:00 4.0
23/09 00:16 13.0 12.7 10 00:00 4.0
23/09 00:15 13.0 12.7 10 00:00 4.0
23/09 00:14 13.0 12.7 10 00:00 4.0
23/09 00:13 13.0 12.7 10 00:00 4.0
23/09 00:12 13.1 12.9 10.1 00:00 4.0
23/09 00:11 13.1 12.9 10.1 00:00 0.0
23/09 00:10 13.2 13.1 10.2 00:00 4.0
23/09 00:09 13.2 13.2 10 00:00 4.0
23/09 00:08 13.2 13.2 10 00:00 4.0
23/09 00:07 13.2 13.3 10 00:00 0.0
23/09 00:06 13.1 13.3 9.9 00:00 4.0
23/09 00:05 13.1 13.4 9.9 00:00 4.0
23/09 00:04 13.1 13.4 10.1 00:00 0.0
23/09 00:03 13.0 13.4 10 00:00 4.0
23/09 00:02 13.0 13.5 10 00:00 4.0
23/09 00:01 12.9 13.4 10.1 00:00 4.0
23/09 00:00 12.9 13.4 10.1 00:00 4.0
22/09 23:59 12.8 13.3 10 00:00 0.0
22/09 23:58 12.8 13.3 10 02:39 4.0
22/09 23:57 12.7 13.2 9.9 02:39 4.0
22/09 23:56 12.7 13.2 9.9 02:39 4.0
22/09 23:55 12.7 13.2 9.9 02:39 4.0
22/09 23:54 12.7 13.2 9.9 02:39 4.0
22/09 23:53 12.7 13.2 9.9 02:39 4.0
22/09 23:52 12.7 13.1 9.9 02:39 0.0
22/09 23:51 12.7 13.1 9.9 02:39 4.0
22/09 23:50 12.7 13.1 9.9 02:39 4.0
22/09 23:49 12.7 13 9.7 02:39 4.0
22/09 23:48 12.7 13 9.7 02:39 4.0
22/09 23:47 12.7 12.9 9.7 02:39 4.0
22/09 23:46 12.7 12.9 9.7 02:39 4.0
22/09 23:45 12.7 12.8 9.7 02:39 4.0
22/09 23:44 12.8 12.9 9.8 02:39 4.0
22/09 23:43 12.8 12.9 9.8 02:39 4.0
22/09 23:42 12.8 12.8 9.6 02:39 4.0
22/09 23:41 12.8 12.8 9.6 02:39 0.0
22/09 23:40 12.9 12.8 9.7 02:39 4.0
22/09 23:39 12.9 12.8 9.7 02:39 4.0
22/09 23:38 12.9 12.7 9.7 02:39 4.0
22/09 23:37 12.9 12.7 9.7 02:39 4.0
22/09 23:36 13.0 12.8 9.8 02:39 4.0
22/09 23:35 13.0 12.7 9.8 02:39 0.0
22/09 23:34 13.0 12.7 9.8 02:39 4.0
22/09 23:33 13.1 12.8 9.9 02:39 4.0
22/09 23:32 13.1 12.7 9.7 02:39 4.0
22/09 23:31 13.1 12.7 9.7 02:39 4.0
22/09 23:30 13.2 12.8 10 02:39 4.0
22/09 23:29 13.2 12.8 9.8 02:39 4.0
22/09 23:28 13.3 12.9 9.9 02:39 4.0
22/09 23:27 13.3 12.9 9.9 02:39 4.0
22/09 23:26 13.3 12.9 9.9 02:39 4.0
22/09 23:25 13.4 13 10 02:39 4.0
22/09 23:24 13.4 13 10 02:39 4.0
22/09 23:23 13.5 13.2 10.1 02:39 4.0
22/09 23:22 13.5 13.2 9.9 02:39 4.0
22/09 23:21 13.5 13.3 9.9 02:39 0.0
22/09 23:20 13.5 13.4 9.9 02:39 4.0
22/09 23:19 13.5 13.5 9.9 02:39 4.0
22/09 23:18 13.4 13.4 10 02:39 4.0
22/09 23:17 13.3 13.4 9.7 02:39 4.0
22/09 23:16 13.3 13.4 9.7 02:39 4.0
22/09 23:15 13.3 13.5 9.5 02:39 4.0
22/09 23:14 13.4 13.7 9.4 02:39 4.0
22/09 23:13 13.6 14 9.6 02:39 4.0
22/09 23:12 13.7 14.2 9.5 02:39 4.0
22/09 23:11 13.7 14.1 9.5 02:39 4.0
22/09 23:10 13.8 14.2 9.6 02:39 4.0
22/09 23:09 13.8 14.2 9.6 02:39 0.0
22/09 23:08 13.8 14.2 9.6 02:39 4.0
22/09 23:07 13.8 14.2 9.6 02:39 4.0
22/09 23:06 13.8 14.2 9.6 02:39 4.0
22/09 23:05 13.8 14.2 9.6 02:39 4.0
22/09 23:04 13.8 14.1 9.6 02:39 4.0
22/09 23:03 13.8 14.1 9.4 02:39 4.0
22/09 23:02 13.8 14.1 9.4 02:39 0.0
22/09 23:01 13.8 14.1 9.4 02:39 4.0
22/09 23:00 13.8 14.1 9.4 02:39 4.0
22/09 22:59 13.8 14.1 9.4 02:39 4.0
22/09 22:58 13.8 14.1 9.4 02:39 4.0
22/09 22:57 13.8 14 9.4 02:39 4.0
22/09 22:56 13.9 14.1 9.5 02:39 4.0
22/09 22:55 13.9 14 9.3 02:39 4.0
22/09 22:54 13.9 14 9.3 02:39 4.0
22/09 22:53 13.9 14 9.3 02:39 4.0
22/09 22:52 13.9 14 9.3 02:39 0.0
22/09 22:51 13.9 13.9 9.3 02:39 4.0
22/09 22:50 13.9 13.9 9.3 02:39 4.0
22/09 22:49 13.8 13.7 9.2 02:39 4.0
22/09 22:48 13.8 13.7 9.2 02:39 4.0
22/09 22:47 13.8 13.7 9.2 02:39 4.0
22/09 22:46 13.8 13.7 9.2 02:39 4.0
22/09 22:45 13.8 13.7 9.2 02:39 4.0
22/09 22:44 13.9 13.9 9.1 02:39 4.0
22/09 22:43 13.9 13.9 9.1 02:39 4.0
22/09 22:42 13.9 13.9 9.1 02:39 4.0
22/09 22:41 13.9 13.8 9.1 02:39 4.0
22/09 22:40 13.9 13.8 9.1 02:39 4.0
22/09 22:39 14.0 13.9 9.2 02:39 4.0
22/09 22:38 14.0 13.9 9.2 02:39 4.0
22/09 22:37 14.0 13.9 9 02:39 0.0
22/09 22:36 14.1 14 9.1 02:39 4.0
22/09 22:35 14.1 14 9.1 02:39 4.0
22/09 22:34 14.2 14.1 9.2 02:39 4.0
22/09 22:33 14.2 14.1 9.2 02:39 4.0
22/09 22:32 14.2 14.1 9.2 02:39 4.0
22/09 22:31 14.2 14.1 9.2 02:39 4.0
22/09 22:30 14.2 14.1 9 02:39 4.0
22/09 22:29 14.2 14.1 9 02:39 4.0
22/09 22:28 14.2 14.1 9 02:39 4.0
22/09 22:27 14.2 14.1 9.2 02:39 4.0
22/09 22:26 14.1 14 9.1 02:39 4.0
22/09 22:25 14.1 14 9.1 02:39 4.0
22/09 22:24 14.1 14.1 9.1 02:39 4.0
22/09 22:23 14.0 14 9 02:39 4.0
22/09 22:22 14.0 14 9 02:39 4.0
22/09 22:21 14.1 14.1 8.9 02:39 4.0
22/09 22:20 14.1 14.1 8.9 02:39 4.0
22/09 22:19 14.1 14.1 8.9 02:39 4.0
22/09 22:18 14.1 14.1 8.9 02:39 4.0
22/09 22:17 14.1 14 9.1 02:39 4.0
22/09 22:16 14.0 13.9 9 02:39 4.0
22/09 22:15 14.0 13.9 9 02:39 4.0
22/09 22:14 14.0 13.9 8.8 02:39 4.0
22/09 22:13 14.0 13.9 8.8 02:39 4.0
22/09 22:12 14.0 14 9 02:39 4.0
22/09 22:11 14.0 14 9 02:39 4.0
22/09 22:10 14.0 14 9 02:39 4.0
22/09 22:09 14.0 14 9 02:39 0.0
22/09 22:08 14.0 14 8.8 02:39 4.0
22/09 22:07 14.0 14 8.8 02:39 4.0
22/09 22:06 14.0 14 8.8 02:39 0.0
22/09 22:05 14.0 14 9 02:39 4.0
22/09 22:04 14.0 14 9 02:39 4.0
22/09 22:03 14.0 14 9 02:39 4.0
22/09 22:02 14.0 14 9 02:39 4.0
22/09 22:01 14.0 14 8.8 02:39 4.0
22/09 22:00 14.0 14 8.8 02:39 4.0
22/09 21:59 14.0 14 8.8 02:39 4.0
22/09 21:58 14.1 14.1 8.9 02:39 4.0
22/09 21:57 14.1 14 8.9 02:39 4.0
22/09 21:56 14.1 14 8.9 02:39 0.0
22/09 21:55 14.1 14.1 8.9 02:39 4.0
22/09 21:54 14.1 14.1 8.9 02:39 0.0
22/09 21:53 14.1 14.1 8.9 02:39 4.0
22/09 21:52 14.0 14 8.8 02:39 4.0
22/09 21:51 14.0 14 8.8 02:39 4.0
22/09 21:50 14.0 14 8.8 02:39 4.0
22/09 21:49 14.0 14 8.8 02:39 4.0
22/09 21:48 14.0 14 8.8 02:39 4.0
22/09 21:47 14.1 14.1 8.9 02:39 0.0
22/09 21:46 14.1 14.1 8.9 02:39 4.0
22/09 21:45 14.1 14.1 8.9 02:39 4.0



    Load Time 0.069510 seconds